Hauptseite
METAR-TAF:

METAR-TAF

Flughäfen :

Alpnach, Schweiz

Militärflugplatz Alpnach

Breite: 46-56-19N, Länge: 8-17-03E, Höhe: 440 m

Beobachtung

Neuester Wetterbericht von vor 49 Minuten, um 18:50 UTC
Wind 4 kt aus Süd
Temperatur 8°C
Luftfeuchtigkeit 93%
Luftdruck 1015 hPa
Sichtweite: 6000 m
Leicht bewölkt in der Höhe von 3400 ft
Geschlossene Wolkendecke in der Höhe von 4100 ft
Regen

METAR: LSMA 221850Z AUTO 17004KT 6000NDV RA FEW034 OVC041 08/07 Q1015 RMK

Zeit: 20:39 (19:39 UTC)


TAF: fehlend

Wetterbeobachtungen und Prognosen von mehr als 4000 Flughäfen (METAR und TAF Bericht).

Die verfügbaren Stationen werden durch gelbe und rote Markierungen auf der Karte dargestellt.

Führen Sie die Maus auf sie, um den Namen der Station zu sehen.

Darauf klicken, um die Beobachtung von Wetterbeobachtungen und Prognosen zu sehen.

Um die Karte zu ändern : klicken Sie auf den grünen Tasten mit einem schwarzen Kreuz Zum Vergrößern, auf den grünen Button mit einem Gedankenstrich zu verkleinern, oder auf die grünen Pfeile für benachbarte Karten.


METAR-TAF: